sat.trackr.live / text

‹ back to catalog

STARLINK-30857

NORAD 58595 · 2023-200G

PAYLOAD ACTIVE UNKNOWN

§ Identity

Operator
Country
US
Launch date
2023-12-19
Launch site
AFETR
Launch vehicle
Mass (kg)
RCS (m²)

Purposes: comms

External: N2YO · Heavens-Above · Gunter

§ Orbital elements

Epoch: 2026-05-25T05:02:15.635616Z

Period
94.27 min
Inclination
43.0003°
Eccentricity
0.0001327
Mean motion
15.27579397 rev/d
Perigee alt
482.1 km
Apogee alt
484.0 km
Semi-major
6,861.2 km
B*
-8.8243e-6
RAAN
96.7056°
Arg perigee
270.4942°
Mean anomaly
89.5757°
Rev number
13,531

§ Raw data

STARLINK-308571 58595U 23200G   26145.20990319 -.00000505  00000+0 -88243-5 0  99912 58595  43.0003  96.7056 0001327 270.4942  89.5757 15.27579397135317

JSON: /api/v1/satellites/58595 · /tle

For live sub-satellite position, see the globe view (requires WebGL).

§ Visibility from observer

Set your observer location to see the next 7 days of passes ≥ 10°. The values pass through the URL so the page stays shareable.

No JS? Fill the form by hand. The geolocation button needs JavaScript.